Starlink 34618

operational
NORAD ID: 64770 Int'l Des: 2025-147 Owner: SPXS Country: US Constellation: starlink
LEOCIRCULAR

Starlink 34618について

説明を読み込み中...

リアルタイム位置

3D地球を読み込み中...

次回通過

高度履歴

Altitude vs Time

uPlot chart will show altitude changes over time

軌道要素

1 64770U 25147R 25340.94893796 .00041274 00000-0 13956-2 0 9996
2 64770 53.1574 313.4606 0001701 349.9235 10.1732 15.30253445 24482
Epoch: Dec 6, 2025 • Age: 14 hours

現在のステータス

高度 489.9 km
速度 7.62 km/s
衛星直下点 -46.05°S, 5.43°W
打ち上げ日 Jul 8, 2025
運用期間 0.4 years
タイプ internet

技術仕様

分類 Payload
質量 575.00 kg
乾燥質量 530.00 kg
総質量 575.00 kg
長さ 0.30 m
直径 4.10 m
スパン 29.00 m
形状 Box + pan
製造者 SPXS
バスタイプ Starlink V2MO
フェーズステータス In Orbit
所有者/国 SPXS/US

大規模コンステレーション

Loading constellations...